Cedar Falls, IA

11:47 AM CST on February 26, 2017 (GMT -0600)
Waterloo Municipal

Weather History for KALO - March, 2013

Change the Weather History Date:

Friday, March 1, 2013

  Actual Average Record
Temperature  
Mean Temperature 18 °F 29 °F  
Max Temperature 28 °F 38 °F 67 °F (1923)
Min Temperature 8 °F 20 °F -34 °F (1962)
Degree Days  
Heating Degree Days 47 36  
Month to date heating degree days 47 36  
Since 1 July heating degree days 5257 5455  
Cooling Degree Days 0 0  
Month to date cooling degree days 0 0  
Year to date cooling degree days 0 0  
Moisture  
Dew Point 16 °F    
Average Humidity 73    
Maximum Humidity 83    
Minimum Humidity 63    
Precipitation  
Precipitation T in 0.05 in 0.96 in (1965)
Month to date precipitation T 0.05  
Year to date precipitation 3.08 1.87  
Snow  
Snow T in 0.20 in 3.90 in (2002)
Month to date snowfall T 0.2  
Since 1 July snowfall 37.1 29.1  
Snow Depth 7.00 in    
Sea Level Pressure  
Sea Level Pressure 30.26 in    
Wind  
Wind Speed 9 mph (North)    
Max Wind Speed 15 mph    
Max Gust Speed 20 mph    
Visibility 10 miles    
Events Snow    
T = Trace of Precipitation, MM = Missing Value Source: NWS Daily Summary

Daily Weather History Graph

Daily Weather History Graph

Search for Another Location

Airport or City:

Trip Planner

Search our weather history database for the weather conditions in past years. The results will help you decide how hot, cold, wet, or windy it might be!

Date:

Astronomy

Mar. 01, 2013 Rise Set
Actual Time 6:44 AM CST 5:59 PM CST
Civil Twilight 6:16 AM CST 6:27 PM CST
Nautical Twilight 5:43 AM CST 7:00 PM CST
Astronomical Twilight 5:11 AM CST 7:33 PM CST
Moon 10:40 PM CST (3/1) 8:25 AM CST (3/1)
Length of Visible Light 12h 11m
Length of Day
11h 14m
Waning Gibbous, 83% of the Moon is Illuminated
Mar 1
Waning Gibbous
Mar 4
Last Quarter
Mar 11
New
Mar 19
First Quarter
Mar 27
Full

Hourly Weather History & Observations

Time (CST) Temp. Windchill Dew Point Humidity Pressure Visibility Wind Dir Wind Speed Gust Speed Precip Events Conditions
12:54 AM 26.1 °F 16.2 °F 21.0 °F 81% 30.16 in 10.0 mi North 10.4 mph - N/A   Overcast
1:54 AM 26.1 °F 16.2 °F 21.0 °F 81% 30.17 in 10.0 mi North 10.4 mph - N/A   Overcast
2:54 AM 26.1 °F 18.4 °F 19.9 °F 78% 30.17 in 10.0 mi North 6.9 mph - N/A   Overcast
3:54 AM 26.1 °F 19.4 °F 19.9 °F 78% 30.17 in 10.0 mi North 5.8 mph - N/A   Overcast
4:54 AM 26.1 °F 19.4 °F 19.0 °F 75% 30.19 in 10.0 mi North 5.8 mph - N/A   Overcast
5:54 AM 25.0 °F 14.8 °F 18.0 °F 75% 30.20 in 10.0 mi NNE 10.4 mph - N/A   Overcast
6:54 AM 24.1 °F 13.7 °F 17.1 °F 75% 30.22 in 10.0 mi NNE 10.4 mph - N/A   Overcast
7:54 AM 24.1 °F 13.7 °F 17.1 °F 75% 30.25 in 10.0 mi NNE 10.4 mph - N/A   Overcast
8:54 AM 23.0 °F 10.6 °F 18.0 °F 81% 30.25 in 9.0 mi NNE 13.8 mph - N/A   Overcast
9:54 AM 24.8 °F 13.4 °F 17.6 °F 74% 30.23 in 7.0 mi NNE 12.7 mph - N/A Snow Light Snow
10:54 AM 26.6 °F 16.2 °F 17.6 °F 69% 30.24 in 10.0 mi NE 11.5 mph - N/A   Overcast
11:54 AM 26.6 °F 16.8 °F 17.6 °F 69% 30.24 in 10.0 mi North 10.4 mph - N/A   Overcast
12:54 PM 28.4 °F 19.7 °F 17.6 °F 64% 30.24 in 10.0 mi North 9.2 mph - N/A   Scattered Clouds
1:54 PM 27.0 °F 18.0 °F 15.1 °F 61% 30.27 in 10.0 mi NE 9.2 mph - N/A   Overcast
2:54 PM 27.0 °F 17.3 °F 15.1 °F 61% 30.27 in 10.0 mi NNE 10.4 mph - N/A   Overcast
3:54 PM 26.1 °F 14.5 °F 15.1 °F 63% 30.28 in 10.0 mi North 13.8 mph - N/A   Overcast
4:54 PM 25.0 °F 15.5 °F 15.1 °F 66% 30.29 in 10.0 mi North 9.2 mph - N/A   Overcast
5:13 PM 24.8 °F 15.3 °F 15.8 °F 69% 30.26 in 10.0 mi North 9.2 mph - N/A   Overcast
5:54 PM 25.0 °F 16.3 °F 15.1 °F 66% 30.30 in 10.0 mi NNE 8.1 mph - N/A   Overcast
6:54 PM 24.1 °F 15.2 °F 15.1 °F 69% 30.32 in 10.0 mi North 8.1 mph - N/A   Overcast
7:21 PM 24.8 °F 16.1 °F 15.8 °F 69% 30.28 in 10.0 mi North 8.1 mph - N/A   Overcast
7:54 PM 24.1 °F 15.2 °F 16.0 °F 71% 30.33 in 10.0 mi NNW 8.1 mph - N/A   Overcast
8:54 PM 19.9 °F 10.1 °F 12.9 °F 74% 30.33 in 10.0 mi NW 8.1 mph - N/A   Scattered Clouds
9:54 PM 17.1 °F 8.7 °F 10.9 °F 77% 30.33 in 10.0 mi NW 5.8 mph - N/A   Clear
10:54 PM 10.9 °F - 7.0 °F 84% 30.33 in 10.0 mi Calm Calm - N/A   Clear
11:54 PM 12.9 °F 5.2 °F 10.9 °F 92% 30.33 in 10.0 mi WNW 4.6 mph - N/A   Clear